Fort Myers, FL

11:10 PM EDT on March 22, 2017 (GMT -0400)
Page

Weather History for KFMY - June, 2013

Change the Weather History Date:

Sunday, June 30, 2013

  Actual Average Record
Temperature  
Mean Temperature 82 °F 83 °F  
Max Temperature 89 °F 92 °F 99 °F (1942)
Min Temperature 74 °F 74 °F 68 °F (1917)
Degree Days  
Heating Degree Days 0 0  
Month to date heating degree days 0 0  
Since 1 June heating degree days 0 0  
Since 1 July heating degree days 201 287  
Cooling Degree Days 17 18  
Month to date cooling degree days 505 525  
Year to date cooling degree days 1643 1591  
Since 1 June cooling degree days 505 525  
Growing Degree Days 32 (Base 50)    
Moisture  
Dew Point 74 °F    
Average Humidity 83    
Maximum Humidity 91    
Minimum Humidity 59    
Precipitation  
Precipitation 1.49 in 0.37 in 3.85 in (1975)
Month to date precipitation 10.33 10.09  
Year to date precipitation 20.49 21.89  
Sea Level Pressure  
Sea Level Pressure 29.87 in    
Wind  
Wind Speed 9 mph (South)    
Max Wind Speed 20 mph    
Max Gust Speed 26 mph    
Visibility 9 miles    
Events Fog , Rain , Thunderstorm    
T = Trace of Precipitation, MM = Missing Value Source: NWS Daily Summary

Daily Weather History Graph

Daily Weather History Graph

Search for Another Location

Airport or City:

Trip Planner

Search our weather history database for the weather conditions in past years. The results will help you decide how hot, cold, wet, or windy it might be!

Date:

Astronomy

Jun. 30, 2013 Rise Set
Actual Time 6:37 AM EDT 8:24 PM EDT
Civil Twilight 6:11 AM EDT 8:50 PM EDT
Nautical Twilight 5:39 AM EDT 9:22 PM EDT
Astronomical Twilight 5:06 AM EDT 9:55 PM EDT
Moon 1:08 AM EDT (6/30) 2:01 PM EDT (6/30)
Length of Visible Light 14h 39m
Length of Day
13h 47m
Last Quarter, 45% of the Moon is Illuminated
Jun 30
Last Quarter
Jul 8
New
Jul 15
First Quarter
Jul 22
Full
Jul 29
Last Quarter

Hourly Weather History & Observations

Time (EDT) Temp. Heat Index Dew Point Humidity Pressure Visibility Wind Dir Wind Speed Gust Speed Precip Events Conditions
12:53 AM 78.1 °F - 73.9 °F 87% 29.88 in 10.0 mi Calm Calm - N/A   Clear
1:53 AM 77.0 °F - 73.9 °F 90% 29.87 in 10.0 mi Calm Calm - N/A   Clear
2:53 AM 78.1 °F - 73.9 °F 87% 29.86 in 10.0 mi Calm Calm - N/A   Partly Cloudy
3:53 AM 78.1 °F - 75.0 °F 90% 29.85 in 10.0 mi ESE 3.5 mph - N/A   Partly Cloudy
4:17 AM 78.8 °F - 75.2 °F 89% 29.84 in 10.0 mi Calm Calm - N/A Thunderstorm Clear
4:53 AM 78.1 °F - 75.0 °F 90% 29.85 in 10.0 mi SE 4.6 mph - N/A Thunderstorm Partly Cloudy
5:05 AM 78.8 °F - 75.2 °F 89% 29.84 in 10.0 mi SE 3.5 mph - N/A   Mostly Cloudy
5:42 AM 78.8 °F - 75.2 °F 89% 29.85 in 10.0 mi NE 3.5 mph - 0.04 in Rain , Thunderstorm Light Rain
5:53 AM 78.1 °F - 75.0 °F 90% 29.85 in 10.0 mi Calm Calm - 0.04 in Rain , Thunderstorm Light Rain
6:17 AM 78.8 °F - 75.2 °F 89% 29.84 in 10.0 mi ESE 3.5 mph - 0.01 in   Scattered Clouds
6:53 AM 77.0 °F - 75.0 °F 94% 29.86 in 9.0 mi SE 3.5 mph - 0.01 in   Partly Cloudy
7:53 AM 79.0 °F - 75.0 °F 88% 29.86 in 10.0 mi Calm Calm - N/A   Partly Cloudy
8:53 AM 82.0 °F 89.4 °F 75.9 °F 82% 29.88 in 10.0 mi SSW 5.8 mph - 0.01 in   Partly Cloudy
9:53 AM 84.0 °F 92.6 °F 75.9 °F 76% 29.88 in 10.0 mi SSW 10.4 mph - 0.02 in   Partly Cloudy
10:53 AM 86.0 °F 93.8 °F 73.9 °F 67% 29.88 in 10.0 mi SW 13.8 mph 24.2 mph N/A   Partly Cloudy
11:40 AM 84.2 °F 90.9 °F 73.4 °F 70% 29.87 in 10.0 mi SW 15.0 mph 21.9 mph 0.00 in Rain Light Rain
11:53 AM 87.1 °F 95.4 °F 73.9 °F 65% 29.88 in 10.0 mi SW 13.8 mph 25.3 mph 0.00 in   Partly Cloudy
12:53 PM 88.0 °F 96.5 °F 73.9 °F 63% 29.88 in 10.0 mi SSW 12.7 mph 23.0 mph N/A   Mostly Cloudy
1:53 PM 87.1 °F 95.4 °F 73.9 °F 65% 29.86 in 10.0 mi SSW 16.1 mph 20.7 mph N/A   Scattered Clouds
2:53 PM 89.1 °F 97.0 °F 73.0 °F 59% 29.84 in 10.0 mi SSW 15.0 mph 23.0 mph N/A   Scattered Clouds
3:53 PM 87.1 °F 95.4 °F 73.9 °F 65% 29.85 in 10.0 mi SSW 12.7 mph 19.6 mph N/A   Mostly Cloudy
4:21 PM 87.8 °F 95.6 °F 73.4 °F 62% 29.84 in 10.0 mi SSW 15.0 mph 25.3 mph N/A   Scattered Clouds
4:53 PM 86.0 °F 93.0 °F 73.0 °F 65% 29.84 in 10.0 mi SSW 16.1 mph 24.2 mph N/A   Mostly Cloudy
5:33 PM 87.8 °F 95.6 °F 73.4 °F 62% 29.84 in 10.0 mi SW 12.7 mph 19.6 mph N/A   Mostly Cloudy
5:42 PM 87.8 °F 95.6 °F 73.4 °F 62% 29.83 in 10.0 mi SSW 12.7 mph 21.9 mph N/A   Mostly Cloudy
5:53 PM 87.1 °F 94.5 °F 73.0 °F 63% 29.84 in 10.0 mi SSW 11.5 mph 19.6 mph N/A   Mostly Cloudy
6:39 PM 84.2 °F 92.3 °F 75.2 °F 74% 29.84 in 10.0 mi South 10.4 mph 17.3 mph N/A Thunderstorm Mostly Cloudy
6:53 PM 82.0 °F 87.4 °F 73.0 °F 74% 29.86 in 10.0 mi South 17.3 mph 23.0 mph N/A Thunderstorm Mostly Cloudy
7:12 PM 75.2 °F - 73.4 °F 94% 29.89 in 1.8 mi SSW 12.7 mph 26.5 mph 0.01 in Rain , Thunderstorm Heavy Thunderstorms and Rain
7:20 PM 75.2 °F - 73.4 °F 94% 29.89 in 0.5 mi SSE 11.5 mph 21.9 mph 0.28 in Fog , Rain , Thunderstorm Heavy Thunderstorms and Rain
7:30 PM 75.2 °F - 73.4 °F 94% 29.88 in 2.5 mi SE 5.8 mph - 0.40 in Rain , Thunderstorm Light Thunderstorms and Rain
7:37 PM 75.2 °F - 73.4 °F 94% 29.88 in 10.0 mi Variable 3.5 mph - 0.40 in Thunderstorm Thunderstorm
7:53 PM 77.0 °F - 73.9 °F 90% 29.89 in 10.0 mi NNW 3.5 mph - 0.40 in Rain , Thunderstorm Light Rain
8:07 PM 77.0 °F - 73.4 °F 89% 29.89 in 10.0 mi Calm Calm - 0.00 in Thunderstorm Overcast
8:34 PM 77.0 °F - 73.4 °F 89% 29.90 in 2.0 mi Calm Calm - 0.07 in Rain , Thunderstorm Light Rain
8:43 PM 77.0 °F - 75.2 °F 94% 29.89 in 10.0 mi ESE 5.8 mph - 0.07 in Thunderstorm Mostly Cloudy
8:53 PM 77.0 °F - 75.0 °F 94% 29.89 in 10.0 mi East 4.6 mph - 0.07 in Thunderstorm Overcast
9:33 PM 77.0 °F - 73.4 °F 89% 29.90 in 10.0 mi SSE 16.1 mph 24.2 mph N/A   Mostly Cloudy
9:39 PM 75.2 °F - 73.4 °F 94% 29.91 in 10.0 mi SE 11.5 mph 24.2 mph 0.00 in Rain , Thunderstorm Light Rain
9:53 PM 75.0 °F - 73.0 °F 94% 29.92 in 3.0 mi SSE 11.5 mph - 0.01 in Rain , Thunderstorm Light Rain
9:55 PM 75.2 °F - 73.4 °F 94% 29.91 in 1.5 mi SE 10.4 mph 19.6 mph 0.01 in Rain , Thunderstorm Rain
10:07 PM 75.2 °F - 73.4 °F 94% 29.91 in 3.0 mi SE 11.5 mph - 0.31 in Rain , Thunderstorm Light Rain
10:22 PM 75.2 °F - 73.4 °F 94% 29.91 in 9.0 mi SE 9.2 mph - 0.31 in Rain Light Rain
10:53 PM 75.0 °F - 73.0 °F 94% 29.91 in 10.0 mi SSE 5.8 mph - 0.31 in   Clear
11:48 PM 75.2 °F - 73.4 °F 94% 29.92 in 10.0 mi SE 6.9 mph - N/A Thunderstorm Clear
11:53 PM 75.9 °F - 73.9 °F 94% 29.92 in 10.0 mi SE 6.9 mph - N/A Thunderstorm Thunderstorm